Location: Goll?ig?dem
(16.6773°N, 80.7332°E)
Time: 00:45:36
(UTC+00:00)

Intercosmos 24 Rocket - Pass Details

Date: 19 May 2025
Orbit: 497 x 2429 km, 82.6° (Epoch: 18 June)

Event Time Altitude Azimuth Distance (km) Brightness Sun altitude
Rises 14:32:05 0° 360° (N) 2,581 8.2 -20.3°
Reaches altitude 10° 14:34:02 10° 3° (N) 1,732 7.2 -20.7°
Maximum altitude 14:37:37 67° 86° (E) 624 4.3 -21.5°
Enters shadow 14:37:46 66° 101° (E) 631 4.3 -21.5°
